{"data":{"norad_id":59089,"epoch":"2026-05-24T16:03:30.402432Z","epoch_age_seconds":114289,"freshness":"FRESH","line1":"1 59089U 24041R   26144.66910188  .00001542  00000+0  65534-4 0  9996","line2":"2 59089  43.0025 241.4429 0001514 268.9003  91.1675 15.27584059125948","mean_motion":15.27584059,"eccentricity":0.0001514,"inclination_deg":43.0025,"raan_deg":241.4429,"arg_perigee_deg":268.9003,"mean_anomaly_deg":91.1675,"bstar":6.5534e-5,"rev_number":12594,"period_min":94.266498233993,"perigee_km":481.99816022554,"apogee_km":484.07572369516,"semimajor_km":6861.1739419603,"source":"CELESTRAK","updated_at":"2026-05-25T13:38:18.830819Z"}}